リニア彗星

C/2012 A2 ( LINEAR )

English version
Home page
Updated on April 28, 2012

---------------------------------------------------------------------

・ プロフィール

発見日 2012年1月15日
発見光度 18.5等
発見者 Lincoln Laboratory Near-Earth Asteroid Research project

・ 写真集

・ 軌道要素

Epoch 2012 Nov. 9.0 TT = JDT 2456240.5
T 2012 Nov. 5.08817 TT                                  MPC
q   3.5374938            (2000.0)            P               Q
z  +0.0010211      Peri.  101.66915     +0.08480631     +0.98342952
 +/-0.0000052      Node   191.40418     +0.23708557     +0.13627623
e   0.9963880      Incl.  125.86865     +0.96778010     -0.11956244
From 590 observations 2011 Apr. 2-2012 Apr. 1, mean residual 0".5.

・ 星図

・ 光度変化

        m1 = 8.0 + 5 logΔ + 10.0 log r

---------------------------------------------------------------------

軌道要素はM.P.E.C. 2012-G18に掲載されたものです。
星図はステラナビゲータ Ver.8 (アストロアーツ) で作成したものです。
光度グラフはComet for Windowsで作成したものです。

---------------------------------------------------------------------

Copyright(C) Seiichi Yoshida (comet@aerith.net). All rights reserved.